TimeEST,TemperatureF,Dew PointF,Humidity,Sea Level PressureIn,VisibilityMPH,Wind Direction,Wind SpeedMPH,Gust SpeedMPH,PrecipitationIn,Events,Conditions,WindDirDegrees,DateUTC
12:53 AM,73.4,57.2,57,30.15,10.0,East,15.0,24.2,N/A,,Scattered Clouds,90,2011-11-26 05:53:00
1:53 AM,73.9,59.0,59,30.15,10.0,East,15.0,-,N/A,,Mostly Cloudy,90,2011-11-26 06:53:00
2:53 AM,73.9,57.9,57,30.14,10.0,East,15.0,-,N/A,,Clear,90,2011-11-26 07:53:00
3:53 AM,73.0,60.1,64,30.14,10.0,East,15.0,20.7,N/A,,Partly Cloudy,90,2011-11-26 08:53:00
4:53 AM,73.9,61.0,64,30.13,10.0,East,12.7,21.9,N/A,,Partly Cloudy,90,2011-11-26 09:53:00
5:53 AM,73.0,64.9,76,30.14,10.0,East,17.3,24.2,N/A,,Mostly Cloudy,90,2011-11-26 10:53:00
6:53 AM,73.0,64.0,73,30.15,10.0,East,15.0,25.3,N/A,,Mostly Cloudy,90,2011-11-26 11:53:00
7:53 AM,75.0,62.1,64,30.17,10.0,East,16.1,25.3,N/A,,Mostly Cloudy,90,2011-11-26 12:53:00
8:53 AM,75.0,60.1,60,30.19,10.0,East,21.9,32.2,N/A,,Mostly Cloudy,100,2011-11-26 13:53:00
9:53 AM,78.1,57.9,50,30.21,10.0,East,24.2,29.9,N/A,,Scattered Clouds,100,2011-11-26 14:53:00
10:53 AM,79.0,60.1,52,30.20,10.0,East,17.3,23.0,N/A,,Mostly Cloudy,90,2011-11-26 15:53:00
11:53 AM,79.0,61.0,54,30.18,10.0,East,23.0,28.8,N/A,,Mostly Cloudy,90,2011-11-26 16:53:00
12:53 PM,80.1,59.0,48,30.15,10.0,East,18.4,24.2,N/A,,Mostly Cloudy,100,2011-11-26 17:53:00
1:53 PM,78.1,63.0,60,30.13,10.0,East,13.8,21.9,N/A,,Mostly Cloudy,80,2011-11-26 18:53:00
2:53 PM,78.1,64.0,62,30.12,10.0,East,16.1,-,N/A,,Scattered Clouds,100,2011-11-26 19:53:00
3:53 PM,78.1,63.0,60,30.12,10.0,East,16.1,-,N/A,,Scattered Clouds,80,2011-11-26 20:53:00
4:53 PM,77.0,63.0,62,30.12,10.0,East,12.7,-,N/A,,Scattered Clouds,80,2011-11-26 21:53:00
5:53 PM,75.9,63.0,64,30.12,10.0,East,16.1,23.0,N/A,,Mostly Cloudy,90,2011-11-26 22:53:00
6:53 PM,75.0,63.0,66,30.12,10.0,East,18.4,24.2,N/A,,Scattered Clouds,80,2011-11-26 23:53:00
7:53 PM,75.0,63.0,66,30.13,10.0,East,17.3,25.3,N/A,,Scattered Clouds,80,2011-11-27 00:53:00
8:53 PM,75.0,61.0,62,30.13,10.0,East,17.3,28.8,N/A,,Scattered Clouds,90,2011-11-27 01:53:00
9:53 PM,75.0,57.9,55,30.14,10.0,East,16.1,20.7,N/A,,Mostly Cloudy,100,2011-11-27 02:53:00
10:53 PM,75.0,57.9,55,30.13,10.0,East,21.9,28.8,N/A,,Mostly Cloudy,100,2011-11-27 03:53:00
11:53 PM,75.0,57.9,55,30.12,10.0,East,20.7,-,N/A,,Mostly Cloudy,100,2011-11-27 04:53:00